Location: Brahman Valley
(40.6513°N, 111.8855°W)
Time: 02:38:36
(UTC+00:00)

Tiros 1 despin weight - All Passes

Search period start: 12 May 2021 00:00
Search period end: 22 May 2021 00:00
Orbit: 593 x 642 km, 48.2° (Epoch: 11 May)

Date Brightness Start Highest point End Pass type
(mag) Time Alt. Az. Time Alt. Az. Time Alt. Az.
12 May - 02:37:20 10° S 02:40:43 20° SE 02:44:08 10° E daylight
12 May - 04:17:08 10° WSW 04:21:50 88° NNW 04:26:33 10° ENE visible
12 May - 05:59:28 10° WNW 06:03:48 36° N 06:08:09 10° ENE visible
12 May - 07:41:51 10° WNW 07:46:11 35° N 07:50:29 10° ENE visible
12 May - 09:23:30 10° WNW 09:28:12 83° NNE 09:32:50 10° ESE visible
12 May - 11:05:48 10° W 11:09:21 22° SW 11:12:51 10° S visible
13 May - 02:52:28 10° SSW 02:56:45 37° SE 03:01:05 10° ENE daylight
13 May - 04:33:37 10° WSW 04:38:13 57° NNW 04:42:52 10° ENE visible
13 May - 06:16:12 10° WNW 06:20:26 32° N 06:24:40 10° ENE visible
13 May - 07:58:15 10° NW 08:02:46 44° NNE 08:07:14 10° E visible
13 May - 09:39:52 10° WNW 09:44:28 58° SW 09:49:01 10° SE visible
13 May - 11:24:14 10° WSW 11:25:16 11° SW 11:26:18 10° SW visible
14 May - 01:29:50 10° SSE 01:32:02 13° SE 01:34:15 10° ESE daylight
14 May - 03:08:19 10° SW 03:12:56 68° SE 03:17:35 10° ENE visible
14 May - 04:50:18 10° W 04:54:44 41° NNW 04:59:12 10° NE visible
14 May - 06:32:49 10° WNW 06:37:05 33° N 06:41:19 10° ENE visible
14 May - 08:14:34 10° WNW 08:19:14 63° NNE 08:23:52 10° ESE visible
14 May - 09:56:29 10° WNW 10:00:37 32° SW 10:04:42 10° SSE night (unlit)
15 May - 01:44:10 10° SSW 01:47:59 26° SE 01:51:52 10° E daylight
15 May - 03:24:35 10° WSW 03:29:15 73° NNW 03:33:57 10° ENE visible
15 May - 05:07:03 10° WNW 05:11:20 34° N 05:15:37 10° ENE visible
15 May - 06:49:18 10° NW 06:53:42 38° NNE 06:58:04 10° E visible
15 May - 08:30:53 10° WNW 08:35:36 81° SSW 08:40:15 10° SE visible
15 May - 10:13:39 10° W 10:16:37 17° SW 10:19:33 10° S night (unlit)
16 May - 01:59:38 10° SW 02:04:05 48° SE 02:08:35 10° ENE daylight
16 May - 03:41:10 10° W 03:45:41 49° NNW 03:50:15 10° NE visible
16 May - 05:23:45 10° WNW 05:27:58 32° N 05:32:12 10° ENE visible
16 May - 07:05:39 10° NW 07:10:14 50° NNE 07:14:48 10° E visible
16 May - 08:47:20 10° WNW 08:51:49 46° SW 08:56:15 10° SE visible
17 May - 00:36:14 10° S 00:39:17 18° SE 00:42:21 10° E daylight
17 May - 02:15:41 10° WSW 02:20:19 85° SSE 02:25:01 10° ENE daylight
17 May - 03:57:53 10° W 04:02:14 37° NNW 04:06:37 10° ENE visible
17 May - 05:40:18 10° WNW 05:44:36 34° N 05:48:55 10° ENE visible
17 May - 07:21:57 10° WNW 07:26:40 76° NNE 07:31:21 10° ESE visible
17 May - 09:04:06 10° W 09:07:54 25° SW 09:11:40 10° S night (unlit)
18 May - 00:51:10 10° SSW 00:55:16 33° SE 00:59:28 10° ENE daylight
18 May - 02:32:05 10° WSW 02:36:41 61° NNW 02:41:20 10° ENE daylight
18 May - 04:14:37 10° WNW 04:18:51 33° N 04:23:06 10° ENE visible
18 May - 05:56:44 10° NW 06:01:11 42° NNE 06:05:39 10° E visible
18 May - 07:38:19 10° WNW 07:42:58 65° SW 07:47:35 10° SE visible
18 May - 09:21:51 10° WSW 09:23:51 13° SW 09:25:50 10° SSW night (unlit)
18 May - 23:29:11 10° SSE 23:30:36 11° SE 23:32:02 10° ESE daylight
19 May - 01:06:53 10° SW 01:11:26 61° SE 01:16:02 10° ENE daylight
19 May - 02:48:44 10° W 02:53:10 43° NNW 02:57:39 10° NE daylight
19 May - 04:31:16 10° WNW 04:35:30 32° N 04:39:44 10° ENE visible
19 May - 06:13:03 10° WNW 06:17:42 59° NNE 06:22:20 10° ESE visible
19 May - 07:54:51 10° WNW 07:59:08 36° SW 08:03:23 10° SSE visible
19 May - 23:42:58 10° S 23:46:32 23° SE 23:50:09 10° E daylight
20 May - 01:23:06 10° WSW 01:27:42 79° NNW 01:32:24 10° ENE daylight
20 May - 03:05:29 10° WNW 03:09:45 35° N 03:14:03 10° ENE visible
20 May - 04:47:46 10° WNW 04:52:07 37° NNE 04:56:29 10° E visible
20 May - 06:29:22 10° WNW 06:34:04 89° SW 06:38:46 10° ESE visible
20 May - 08:11:52 10° W 08:15:10 19° SW 08:18:27 10° S visible
20 May - 23:58:17 10° SSW 00:02:36 42° SE 00:06:59 10° ENE daylight
21 May - 01:39:37 10° W 01:44:08 52° NNW 01:48:42 10° NE daylight
21 May - 03:22:11 10° WNW 03:26:23 32° N 03:30:36 10° ENE visible
21 May - 05:04:08 10° NW 05:08:40 47° NNE 05:13:12 10° E visible
21 May - 06:45:46 10° WNW 06:50:19 51° SW 06:54:51 10° SE visible
21 May - 22:35:14 10° SSE 22:37:51 15° SE 22:40:30 10° E daylight
